Hourly Data Report for October 17, 2014

All times are specified in Local Standard Time (LST). Add 1 hour to adjust for Daylight Saving Time where and when it is observed.

PANGNIRTUNG
NUNAVUT

66°08'36.300" N
65°42'40.500" W
22.60 m
2403049
71826
WXP

Download Data

Hourly Data (October 2014)
Hourly Data Report for October 17, 2014
Temp Definition
°C
Dew Point Temp Definition
°C
Rel Hum Definition
%
Wind Dir Definition
10's deg

Wind Spd Definition
km/h
Visibility Definition
km
Stn Press Definition
kPa
Hmdx Definition


Wind Chill Definition


Weather Definition


TIME
00:00 -6.3 -9.6 77 22 5   100.59   -9 LegendNANA
01:00 -6.8 -9.7 80 20 6   100.58   -10 LegendNANA
02:00 -6.7 -9.9 78 22 5   100.58   -9 LegendNANA
03:00 -6.8 -10.2 77 15 5   100.58   -9 LegendNANA
04:00 -6.6 -9.5 79 11 9   100.58   -11 LegendNANA
05:00 -6.9 -10.2 77 12 10   100.59   -12 LegendNANA
06:00 -7.7 -11.7 73 11 13   100.61   -13 LegendNANA
07:00 -7.6 -11.2 76 10 8   100.61   -12 LegendNANA
08:00 -6.8 -9.8 79 11 9   100.63   -11 LegendNANA
09:00 -7.2 -10.4 78 11 6   100.66   -10 LegendNANA
10:00 -6.7 -11.1 71 22 4   100.67   -9 LegendNANA
11:00 -6.3 -10.1 74 23 2   100.71   -7 LegendNANA
12:00 -6.2 -10.8 70 22 2   100.77   -7 LegendNANA
13:00 -6.5 -11.1 70 10 13   100.80   -12 LegendNANA
14:00 -6.1 -10.4 71 10 13   100.84   -11 LegendNANA
15:00 -6.6 -11.3 69 7 7   100.88   -10 LegendNANA
16:00 -5.5 -9.9 71 14 3   100.91   -7 LegendNANA
17:00 -5.9 -9.9 73 20 4   100.96   -8 LegendNANA
18:00 -5.3 -9.5 72 23 4   100.99   -7 LegendNANA
19:00 -5.6 -9.3 75 17 2   101.01   -7 LegendNANA
20:00 -4.6 -9.1 71 22 6   101.01   -7 LegendNANA
21:00 -4.7 -9.1 71 14 5   101.00   -7 LegendNANA
22:00 -4.3 -9.6 66 10 3   100.99   -6 LegendNANA
23:00 -5.3 -9.7 71 9 4   100.97   -7 LegendNANA

Notes on Data Quality.

Legend

  • E = Estimated
  • M = Missing
  • NA = Not Available
  • ‡ = Partner data that is not subject to review by the National Climate Archives
Date modified: